CAPE
160 691 966 947 873 966 924 654 403 165 69 21 9 5 4 0 0 0 0 72 310 1007 1718 1239 1003 807 548 623 534 652 455 440 302 241 196 220 238 191 90 0 14 40 52
0 21 723 912 825 847 824 627 372 172 123 29 21 11 2 0 0 0 0 0 39 393 982 1587 1185 1107 777 677 617 565 506 309 284 185 153 139 113 80 4 1 3 38 56
2 0 1 592 892 830 575 519 407 170 25 1 26 13 20 17 0 0 0 0 0 15 348 834 991 1200 1043 825 849 576 490 288 245 206 146 125 88 35 6 3 3 21 33
0 5 4 0 322 838 739 613 404 172 108 6 14 7 15 52 23 9 3 0 0 37 18 267 853 829 702 758 906 579 564 425 331 256 177 121 44 20 0 1 5 8 12
1 4 11 0 0 94 756 612 406 259 151 113 13 1 0 7 46 39 3 0 0 15 95 105 224 432 528 584 741 651 524 465 389 399 270 142 70 38 5 11 10 0 0
5 0 0 2 2 1 225 719 471 289 292 232 170 74 0 0 40 16 36 14 0 3 83 93 46 55 42 193 476 853 679 588 467 351 470 340 168 69 0 0 1 3 0
0 0 1 0 0 3 0 222 552 343 345 326 194 73 0 0 0 20 50 49 15 0 8 50 46 4 4 3 150 632 838 694 677 767 580 352 179 80 2 0 0 0 0
3 5 8 6 16 5 9 0 94 521 384 228 371 198 319 137 0 0 0 26 57 30 25 24 13 9 26 7 38 139 724 665 1057 780 421 333 200 77 27 0 0 0 2
1 4 7 2 0 0 0 55 265 174 215 224 346 224 182 227 230 0 0 23 69 28 46 20 18 24 16 11 0 2 27 178 513 766 671 344 258 125 59 0 0 0 2
12 3 1 1 3 4 1 17 0 0 243 396 317 246 0 2 146 107 0 45 35 20 74 51 30 6 3 0 0 1 10 1 27 208 590 592 434 241 139 52 0 4 1
13 8 1 4 2 9 7 3 117 0 0 180 391 291 100 0 0 0 36 26 26 43 65 69 60 26 5 0 0 0 0 0 0 0 102 422 609 384 214 135 41 2 2
15 7 18 11 3 2 13 0 253 86 97 309 363 340 325 216 32 1 4 0 123 4 19 26 20 5 17 14 0 0 0 0 0 0 0 32 232 385 280 194 143 71 17
12 13 10 8 14 3 11 8 8 43 49 93 269 342 355 327 361 197 96 79 74 3 0 6 27 4 5 13 15 0 0 0 0 0 0 0 1 66 171 171 142 145 108
11 10 6 9 8 1 6 2 0 30 29 12 206 36 177 145 110 185 153 121 46 6 0 25 0 0 1 20 15 0 0 0 0 0 0 0 0 0 1 17 47 56 64
11 12 8 6 5 2 0 1 2 1 1 0 0 0 1 2 2 6 3 10 144 108 3 0 13 0 0 0 0 0 0 0 1 1 1 1 0 0 0 0 0 0 0
7 9 8 7 9 5 3 1 1 1 1 2 1 1 0 1 3 3 7 4 1 0 142 20 0 0 0 0 0 0 0 0 0 1 1 1 1 1 0 0 0 0 0
5 4 7 7 8 8 5 7 4 1 1 2 3 3 5 4 3 2 4 2 3 1 0 5 16 7 0 3 4 0 0 0 0 1 2 2 1 1 1 1 1 1 1
3 6 5 3 3 6 7 12 5 12 9 1 1 2 2 3 3 4 4 3 3 2 1 1 5 3 4 0 1 0 0 4 4 1 0 1 1 1 1 1 1 0 1
1 1 2 4 5 1 11 19 8 7 3 3 1 0 0 0 0 0 2 3 4 3 2 3 4 5 13 2 1 0 0 0 0 0 0 0 0 1 1 1 1 1 0
1 1 1 1 5 4 3 3 3 3 4 4 3 3 1 0 1 1 1 1 2 2 3 2 2 4 3 5 5 3 1 1 0 0 0 0 0 0 1 1 1 0 0
1 4 2 2 4 9 6 4 5 4 4 3 6 7 5 10 10 6 7 6 3 2 3 4 5 2 4 5 7 9 7 5 0 4 0 0 0 0 0 0 0 0 1
0 1 5 3 3 8 7 4 3 6 4 3 3 3 2 2 6 9 8 11 9 5 6 5 7 7 8 9 10 8 9 8 3 0 7 2 2 4 6 6 2 1 1
0 0 0 3 2 2 6 3 1 1 2 5 3 3 3 4 1 1 1 3 5 7 2 7 6 8 5 8 8 5 5 10 6 2 8 3 6 3 6 0 0 0 1
1 1 0 0 2 1 2 1 0 0 0 1 3 2 3 3 2 1 0 0 0 3 8 9 8 5 5 8 9 5 9 7 5 0 5 9 3 2 0 0 0 0 0
1 2 6 0 0 2 2 1 0 0 0 0 1 0 0 3 5 4 0 0 0 1 2 2 2 1 1 2 3 3 7 7 4 1 4 2 2 0 0 0 1 0 0
1 2 3 1 1 0 5 3 0 0 0 1 0 0 5 4 8 5 4 2 2 3 0 0 0 0 0 0 0 0 3 4 3 3 0 8 7 0 2 1 0 0 0
CIN
-106 -4 -2 -6 -29 -41 -63 -85 -112 -172 -224 -285 -319 -340 -315 -0 -0 -0 -0 -210 -124 -35 -1 -0 -0 -0 -6 -3 -8 -10 -14 -13 -12 -12 -21 -16 -11 -8 -8 -1 -12 -17 -11
-0 -46 -1 -1 -8 -25 -37 -75 -115 -159 -174 -283 -283 -307 -165 -0 -0 -0 -0 -0 -214 -101 -34 -3 -0 -0 -0 -3 -7 -10 -10 -15 -8 -10 -13 -15 -13 -10 -39 -53 -8 -12 -9
-0 -0 -0 -1 -2 -4 -26 -62 -94 -136 -210 -16 -276 -301 -222 -270 -0 -0 -0 -0 -0 -243 -100 -47 -22 -12 -8 -8 -5 -10 -8 -14 -11 -8 -9 -10 -8 -13 -41 -59 -23 -15 -13
-0 -1 -0 -0 -24 -1 -12 -16 -67 -117 -140 -102 -241 -312 -242 -196 -217 -264 -277 -0 -0 -190 -254 -118 -46 -39 -36 -24 -11 -12 -6 -9 -9 -6 -9 -7 -11 -13 -0 -5 -40 -21 -7
-0 -1 -1 -0 -0 -44 -1 -4 -34 -84 -98 -129 -223 -129 -0 -224 -201 -197 -173 -0 -0 -177 -169 -177 -124 -85 -56 -56 -23 -20 -9 -7 -6 -2 -3 -5 -9 -12 -36 -53 -46 -0 -1
-0 -0 -0 -0 -0 -0 -67 -0 -17 -54 -71 -62 -101 -171 -0 -0 -184 -230 -203 -158 -0 -96 -185 -191 -221 -202 -153 -79 -43 -16 -10 -8 -5 -3 -0 -0 -6 -9 -0 -0 -17 -75 -0
-0 -1 -1 -0 -0 -0 -0 -36 -1 -5 -35 -51 -73 -89 -0 -0 -0 -237 -176 -202 -268 -0 -229 -205 -260 -179 -81 -155 -87 -35 -13 -11 -10 -0 -0 -0 -8 -9 -3 -0 -0 -0 -0
-3 -1 -1 -2 -1 -0 -0 -0 -16 -1 -7 -63 -19 -39 -2 -80 -0 -0 -0 -250 -253 -277 -259 -253 -276 -283 -239 -179 -198 -121 -37 -28 -4 -7 -19 -13 -11 -20 -36 -0 -0 -0 -35
-2 -2 -1 -1 -0 -0 -0 -55 -47 -27 -4 -32 -38 -37 -26 -21 -51 -0 -0 -296 -251 -298 -264 -287 -306 -282 -289 -291 -0 -139 -216 -98 -46 -19 -20 -32 -21 -15 -20 -0 -0 -0 -31
-1 -0 -0 -1 -2 -1 -1 -81 -14 -0 -0 -0 -19 -25 -0 -38 -51 -133 -0 -303 -317 -308 -290 -294 -309 -320 -143 -0 -0 -146 -337 -61 -235 -97 -33 -18 -20 -19 -12 -14 -0 -40 -35
-0 -0 -3 -0 -0 -0 -0 -0 -41 -0 -0 -109 -2 -19 -29 -0 -0 -0 -217 -337 -329 -306 -313 -284 -290 -318 -320 -0 -0 -0 -0 -0 -0 -0 -136 -48 -22 -20 -18 -11 -14 -12 -27
-0 -0 -0 -0 -0 -0 -0 -0 -3 -66 -112 -1 -1 -17 -36 -37 -34 -25 -98 -0 -248 -81 -301 -347 -337 -294 -330 -318 -0 -0 -0 -0 -0 -0 -0 -161 -64 -30 -25 -15 -5 -6 -7
-0 -0 -0 -0 -0 -0 -0 -4 -12 -57 -43 -15 -1 -2 -8 -22 -31 -96 -180 -236 -259 -156 -0 -124 -311 -295 -293 -340 -330 -0 -0 -0 -0 -0 -0 -0 -23 -97 -47 -31 -17 -5 -1
-0 -0 -0 -0 -0 -0 -33 -6 -0 -57 -36 -48 -4 -1 -11 -66 -119 -101 -105 -125 -204 -278 -0 -203 -0 -0 -43 -317 -322 -0 -0 -0 -0 -0 -0 -0 -0 -0 -17 -107 -63 -32 -10
-0 -0 -0 -0 -0 -0 -0 -0 -0 -0 -0 -0 -0 -0 -0 -0 -0 -0 -0 -206 -88 -34 -14 -4 -211 -0 -0 -20 -0 -0 -0 -0 -0 -0 -0 -0 -0 -0 -0 -0 -0 -0 -0
-0 -0 -0 -0 -0 -0 -0 -0 -0 -0 -0 -0 -0 -0 -0 -0 -0 -0 -0 -0 -0 -0 -4 -177 -0 -0 -0 -0 -0 -0 -0 -0 -0 -0 -0 -0 -0 -0 -0 -0 -0 -0 -0
-0 -0 -0 -0 -0 -0 -0 -0 -0 -0 -0 -0 -0 -0 -0 -0 -0 -0 -0 -0 -0 -0 -0 -17 -21 -26 -0 -0 -0 -0 -0 -0 -0 -0 -0 -0 -0 -0 -0 -0 -0 -0 -0
-0 -0 -0 -0 -0 -0 -0 -0 -0 -0 -0 -0 -0 -0 -0 -0 -0 -0 -0 -0 -0 -0 -0 -0 -0 -0 -0 -0 -0 -0 -0 -0 -0 -0 -0 -0 -0 -0 -0 -0 -0 -0 -0
-0 -0 -0 -0 -0 -0 -0 -0 -0 -0 -0 -0 -0 -0 -0 -0 -0 -0 -0 -0 -0 -0 -0 -0 -0 -0 -0 -0 -0 -0 -0 -0 -0 -0 -0 -0 -0 -0 -0 -0 -0 -0 -0
-0 -0 -0 -0 -0 -0 -0 -0 -0 -0 -0 -0 -0 -0 -0 -0 -0 -0 -0 -0 -0 -0 -0 -0 -0 -0 -0 -0 -0 -0 -0 -0 -0 -0 -0 -0 -0 -0 -0 -0 -0 -0 -0
-0 -0 -0 -0 -0 -0 -0 -0 -0 -0 -0 -0 -0 -0 -0 -0 -0 -0 -0 -0 -0 -0 -0 -0 -0 -0 -0 -0 -0 -0 -0 -0 -0 -0 -0 -0 -0 -0 -0 -0 -0 -0 -0
-0 -0 -0 -0 -0 -0 -0 -0 -0 -0 -0 -0 -0 -0 -0 -0 -0 -0 -0 -0 -0 -0 -0 -0 -0 -0 -0 -0 -0 -0 -0 -0 -0 -0 -0 -0 -0 -0 -0 -0 -0 -0 -0
-0 -0 -0 -0 -0 -0 -0 -0 -0 -0 -0 -0 -0 -0 -0 -0 -0 -0 -0 -0 -0 -0 -0 -0 -0 -0 -0 -0 -0 -0 -0 -0 -0 -0 -0 -0 -0 -0 -0 -0 -0 -0 -0
-0 -0 -0 -0 -0 -0 -0 -0 -0 -0 -0 -0 -0 -0 -0 -0 -0 -0 -0 -0 -0 -0 -0 -0 -0 -0 -0 -0 -0 -0 -0 -0 -0 -0 -0 -0 -0 -0 -0 -0 -0 -0 -0
-0 -0 -0 -0 -0 -0 -0 -0 -0 -0 -0 -0 -0 -2 -0 -0 -0 -0 -0 -0 -0 -0 -0 -0 -0 -0 -0 -0 -0 -0 -0 -0 -0 -0 -0 -0 -0 -0 -0 -0 -0 -0 -0
-0 -0 -0 -0 -0 -0 -0 -0 -0 -0 -0 -0 -0 -0 -0 -0 -0 -0 -0 -0 -0 -0 -0 -0 -0 -0 -0 -0 -0 -0 -0 -0 -0 -0 -0 -0 -0 -0 -0 -0 -0 -0 -0
Wind_Speed
8 7 8 7 8 8 9 8 8 6 7 7 5 6 6 6 5 3 3 9 10 13 14 15 17 17 16 14 12 14 15 16 15 15 15 14 14 13 11 10 10 11 12
7 9 9 9 9 9 9 8 8 9 7 7 7 7 7 5 5 5 4 4 11 12 12 15 17 17 17 16 13 13 14 15 15 15 15 15 13 12 10 10 9 10 11
9 9 7 11 10 9 14 9 9 8 5 5 7 6 6 7 7 7 6 4 6 10 11 12 17 17 18 17 14 14 14 14 15 15 16 15 13 12 12 12 11 10 11
12 10 7 6 10 10 10 10 9 8 10 7 7 7 7 7 7 7 5 5 5 6 10 10 11 14 16 17 17 17 16 14 15 15 15 16 16 15 14 13 13 12 11
12 10 7 8 10 10 11 11 10 10 9 10 8 6 7 7 8 6 8 8 7 7 6 11 14 13 14 15 17 19 20 18 16 16 17 17 17 17 16 16 15 15 14
12 11 10 11 8 9 12 12 14 11 10 11 8 8 6 7 7 7 9 8 8 9 9 9 8 8 12 13 16 18 20 21 20 19 19 19 19 19 18 18 17 17 17
12 11 10 11 9 11 14 14 14 16 11 11 6 3 4 5 7 7 7 7 8 9 9 8 6 6 7 13 15 17 20 21 20 20 20 20 20 20 20 20 20 19 19
12 12 12 12 9 7 12 14 17 13 11 11 7 3 5 4 6 9 6 7 9 7 9 10 8 8 7 7 11 17 19 20 21 20 20 19 20 21 22 22 22 22 21
14 13 14 12 12 11 11 14 8 8 6 7 12 5 3 7 4 3 10 9 10 8 7 9 10 10 9 8 9 13 15 15 19 21 21 20 20 21 22 23 24 24 23
15 17 17 15 15 12 13 12 11 17 14 8 7 9 2 5 5 2 1 7 9 10 11 8 9 9 10 8 10 11 14 17 18 19 20 20 20 21 22 24 24 25 25
15 15 15 16 15 13 13 13 9 11 12 7 12 7 8 1 1 4 4 3 5 8 9 9 8 8 10 10 8 11 16 16 18 20 20 21 21 21 22 24 25 25 26
11 14 12 13 14 13 15 12 9 12 11 13 11 11 9 10 6 4 2 3 6 4 6 7 8 8 8 9 11 14 16 18 18 19 20 20 21 21 23 25 26 26 26
9 12 14 13 11 13 15 10 9 9 12 8 10 12 11 12 12 9 6 3 3 3 3 5 7 7 8 8 10 15 16 18 18 18 19 20 21 22 23 24 25 27 28
11 16 14 14 8 5 5 7 9 9 10 9 10 4 11 4 3 5 9 7 3 3 1 4 3 6 6 7 10 12 10 15 15 18 19 20 20 20 20 21 23 26 27
12 14 15 14 11 8 4 6 6 7 9 6 8 5 8 8 6 5 4 0 4 4 5 4 4 5 5 5 7 7 8 10 14 17 16 18 19 19 20 21 22 23 25
18 18 19 18 14 10 9 11 10 13 16 13 9 14 7 7 8 6 5 4 4 1 2 3 4 1 3 3 4 4 6 10 14 13 15 15 16 18 19 20 21 23 24
21 22 21 18 16 13 13 14 15 16 21 17 16 15 13 9 5 6 8 6 5 3 1 3 5 6 1 6 7 4 5 6 5 10 12 14 15 17 18 20 22 24 23
21 21 20 18 15 16 16 17 18 17 19 21 19 14 15 11 14 12 10 10 9 8 3 4 3 9 7 12 9 10 11 9 11 9 12 13 15 16 17 20 21 23 23
21 22 21 20 18 18 15 17 18 20 21 21 19 19 16 15 15 11 11 8 8 7 6 6 8 6 7 12 11 9 11 11 9 17 15 14 15 15 16 19 21 21 21
18 19 17 20 21 25 20 18 20 19 19 20 20 19 18 18 17 14 13 13 10 9 10 10 7 6 6 9 7 11 11 10 12 11 10 13 17 13 16 18 19 20 22
16 16 19 19 21 20 21 20 20 19 19 19 19 18 22 24 28 23 11 12 11 10 8 8 7 6 7 8 11 8 8 11 12 5 11 9 10 10 10 11 15 18 20
17 17 18 20 17 15 33 31 24 18 20 20 18 18 19 22 19 22 23 25 20 11 11 7 8 9 11 9 8 7 8 9 7 6 13 13 7 10 9 9 15 17 16
15 18 18 18 20 20 31 31 30 16 18 19 18 17 18 15 16 13 17 19 20 23 14 10 11 10 10 11 10 10 11 9 8 12 10 11 7 9 9 12 22 25 18
15 16 18 18 19 20 31 29 26 16 16 17 18 17 16 16 19 14 12 13 14 13 13 10 11 10 10 10 11 9 9 9 8 6 8 5 10 9 11 10 13 14 15
13 14 14 18 18 20 32 29 18 14 15 17 16 18 16 16 25 24 15 15 14 14 14 19 17 18 18 18 16 8 9 9 8 6 3 7 6 11 9 7 4 18 17
13 11 16 16 25 16 30 29 21 10 12 10 12 15 28 20 25 24 14 14 13 13 14 13 10 12 12 11 14 8 8 9 8 5 3 10 6 8 8 3 12 11 13
Wind_Direction
306 242 240 232 225 215 211 209 213 207 196 199 199 204 214 221 221 213 214 218 206 213 209 207 206 201 198 195 201 191 190 186 183 177 172 174 175 176 177 178 183 172 172
300 316 250 230 225 220 218 211 208 213 212 190 204 200 212 218 220 218 219 220 214 211 218 202 209 208 206 200 198 201 195 191 189 189 185 184 185 181 178 178 179 179 176
295 284 304 262 223 220 224 215 205 207 199 198 203 196 201 211 220 220 219 210 214 219 220 216 208 205 209 207 200 199 197 192 196 195 193 185 185 185 182 180 181 188 184
287 286 276 282 287 214 207 214 204 208 213 202 207 204 206 206 212 211 214 203 201 209 219 221 213 215 211 209 206 200 197 196 198 201 198 189 187 190 187 188 185 190 197
292 287 288 278 263 283 211 212 208 206 211 208 210 200 201 208 212 213 205 207 200 202 206 206 212 216 211 215 215 206 206 204 205 204 200 196 196 195 192 191 191 191 196
303 294 284 267 263 258 272 212 209 207 206 214 208 209 201 211 214 210 211 210 204 201 206 208 206 217 212 214 212 212 214 213 213 213 206 202 202 200 196 195 196 196 198
284 281 273 273 255 249 244 265 209 204 199 185 176 212 215 204 218 214 213 211 209 200 202 206 203 198 202 212 218 221 217 224 221 217 212 210 205 202 200 197 198 200 200
282 278 270 279 261 261 270 247 252 207 199 174 180 150 209 225 223 217 207 210 209 203 204 207 202 197 200 198 210 221 228 226 223 220 216 211 208 201 200 201 201 202 203
280 273 266 266 267 259 251 260 182 212 232 177 196 162 163 210 189 154 209 213 207 202 208 209 207 207 200 205 202 210 217 228 229 227 220 216 211 209 203 204 205 205 207
281 284 276 264 261 256 244 253 232 217 253 221 214 218 263 137 181 195 205 218 210 210 206 209 209 205 208 210 211 208 202 212 224 227 227 224 213 211 209 208 209 209 209
280 276 266 257 252 253 244 246 226 203 207 236 201 187 207 190 117 134 196 208 209 214 214 213 209 202 207 209 209 218 212 210 217 226 228 226 222 215 210 210 211 212 212
300 295 304 273 244 239 243 235 229 215 187 225 219 218 209 194 197 145 149 185 220 209 196 193 205 204 203 209 212 209 209 212 214 219 223 227 226 219 215 211 211 212 215
319 313 318 304 284 228 234 222 198 199 212 196 226 235 232 217 217 207 170 184 184 200 175 216 210 200 203 213 221 210 214 214 214 219 223 223 227 223 218 216 213 214 214
327 323 315 310 302 269 237 225 230 223 198 183 213 55 274 279 304 191 210 191 205 231 231 241 200 199 199 213 224 204 222 218 210 215 217 220 219 225 223 217 216 215 217
346 342 346 348 358 14 27 110 65 55 67 38 51 121 77 47 59 22 29 7 173 197 211 229 228 200 195 200 212 207 215 222 217 220 220 223 217 221 227 219 215 217 216
4 2 7 8 360 21 43 77 69 65 67 52 58 62 57 26 25 65 55 48 57 115 266 195 229 216 167 211 217 225 226 223 227 215 223 225 217 220 224 230 225 219 216
15 22 13 9 13 18 51 67 71 70 77 70 57 69 58 65 95 55 60 50 52 59 104 40 56 344 283 17 7 290 258 257 260 224 222 229 232 226 220 222 224 230 217
24 26 22 17 11 27 44 65 70 66 72 72 62 54 56 43 44 34 46 30 36 31 55 73 355 31 347 15 8 10 14 8 346 338 310 249 237 235 227 228 224 225 227
24 30 27 26 24 33 29 56 68 68 66 61 64 55 43 49 49 44 37 38 31 31 33 65 45 43 281 21 9 356 360 357 343 329 324 318 265 243 239 232 227 225 228
23 30 30 33 26 37 28 33 55 59 64 64 62 61 55 48 44 39 34 30 18 33 19 50 45 16 6 4 27 3 347 350 328 335 345 349 349 308 251 236 231 230 226
21 26 35 29 32 37 37 28 39 47 54 62 60 51 58 51 51 50 46 36 31 45 31 42 42 32 17 9 17 351 335 332 317 13 350 335 338 330 322 275 258 239 230
27 29 39 44 37 39 43 42 40 39 44 46 49 44 53 47 41 45 53 54 54 41 47 38 46 33 20 7 357 356 350 349 342 17 346 315 323 324 330 332 331 262 234
27 35 32 39 43 40 40 45 44 40 43 45 44 40 44 40 35 36 43 49 46 48 44 38 41 28 11 359 351 1 354 345 325 314 322 304 342 330 324 322 316 321 311
34 30 33 31 42 40 38 39 39 37 40 40 44 44 42 40 34 32 33 41 39 35 34 36 37 26 17 4 7 348 338 327 309 299 350 297 324 315 318 306 318 345 347
41 45 40 38 32 40 40 37 35 36 38 37 31 38 39 35 37 31 32 34 29 21 12 22 27 24 18 18 20 357 5 353 349 323 358 333 329 314 318 295 334 347 343
38 38 41 36 38 30 39 42 37 31 35 36 37 32 38 37 42 38 38 32 29 8 0 359 8 13 11 4 7 20 358 355 346 324 333 335 338 355 317 290 348 340 327